#timestamp,LO_Frequency,Hit,StdDev 
1574802015.1,286046996.9,N
1574802016.0,286046996.9,N
1574802035.8,286046998.7,N
1574802055.6,286046999.5,N
1574802075.5,286046996.9,N
1574802095.3,286046997.3,N
1574802115.2,286046996.8,N
1574802135.9,286046997.7,N
1574802155.7,286046999.6,N
1574802175.6,286046996.5,N
1574802195.4,286046998.5,N
1574802215.2,286047000.8,N
1574802235.1,286046998.2,N
1574802236.0,286046998.2,N
1574802255.8,286046999.8,N
1574802275.7,286047001.9,N
1574802295.5,286047003.7,N
1574802315.3,286047002.3,N
1574802335.2,286046998.2,N
1574802355.0,286046998.2,N
1574802355.9,286046998.2,N
1574802375.7,286047000.7,N
1574802395.6,286047000.9,N
1574802415.4,286046998.1,N
1574802435.3,286047000.8,N
1574802455.1,286046998.1,N
1574802456.0,286046998.1,N
1574802475.8,286047000.4,N
1574802495.7,286047000.7,N
1574802515.5,286047000.5,N
1574802535.3,286047001.1,N
1574802555.2,286047001.0,N
1574802575.0,286047002.3,N
1574802575.9,286047002.3,N
1574802595.8,286047000.6,N
1574802615.6,286047001.0,N
1574802635.4,286046998.6,N
1574802655.3,286046998.8,N
1574802675.1,286046996.9,N
1574802695.8,286046998.9,N
1574802715.7,286046998.4,N
1574802735.5,286046999.1,N
1574802755.4,286046998.9,N
1574802775.2,286047000.8,N
1574802795.0,286046998.2,N
1574802795.9,286046998.2,N
1574802815.8,286047000.0,N
1574802835.6,286047000.0,N
1574802855.4,286047001.1,N
1574802875.3,286046999.2,N
1574802895.1,286046996.7,N
1574802915.9,286046995.6,Y
1574802935.7,286046997.1,P
1574802955.5,286046997.3,N
1574802975.4,286046997.6,N
1574802995.2,286046995.4,Y
1574803015.1,286046996.8,P
1574803016.0,286046996.8,P
1574803035.8,286046999.6,N
1574803055.6,286046999.0,N
1574803075.5,286046998.9,N
1574803095.3,286046999.2,N
1574803115.1,286046998.8,N
1574803135.9,286046999.3,N
1574803155.7,286046998.4,N
1574803175.6,286046999.4,N
1574803195.4,286046999.1,N
1574803215.2,286046999.6,N
1574803235.1,286046996.5,Y
1574803236.0,286046996.5,P
1574803255.8,286046998.5,N
1574803275.6,286047001.0,N
1574803295.5,286047001.2,N
1574803315.3,286046998.2,N
1574803335.2,286046998.8,N
1574803355.9,286046998.3,N
1574803375.7,286046999.8,N
1574803395.6,286047000.2,N
1574803415.4,286047002.5,N
1574803435.2,286047001.3,N
1574803455.1,286047003.9,N
1574803456.0,286047003.9,N
1574803475.8,286047003.2,N
1574803495.7,286047003.1,N
1574803515.5,286047003.9,N
1574803535.3,286047003.6,N
1574803555.2,286047003.4,N
1574803575.0,286047003.2,N
1574803575.9,286047003.2,N
1574803595.7,286047004.4,N
1574803615.6,286047004.1,N
1574803635.4,286047002.1,N
1574803655.3,286047001.4,N
1574803675.1,286047001.5,N
1574803676.0,286047001.5,N
1574803695.8,286047001.4,N
1574803715.7,286047003.5,N
1574803735.5,286047006.3,N
1574803755.3,286047006.5,N
1574803775.2,286047006.3,N
1574803795.0,286047007.6,Y
1574803795.9,286047007.6,P
1574803815.8,286047004.0,N
1574803835.6,286047001.7,N
1574803855.4,286047001.9,N
1574803875.3,286047002.5,N
1574803895.1,286047002.3,N
1574803915.9,286047002.3,N
1574803935.7,286047000.0,N
1574803955.5,286047004.3,N
1574803975.4,286047002.1,N
1574803995.2,286046999.8,N
1574804015.0,286047001.9,N
1574804015.9,286047001.9,N
1574804035.8,286047002.2,N
1574804055.6,286047000.3,N
1574804075.5,286047002.6,N
1574804095.3,286047000.5,N
1574804115.1,286047002.3,N
1574804135.9,286047002.2,N
1574804155.7,286047002.1,N
1574804175.5,286047002.8,N
1574804195.4,286047001.8,N
1574804215.2,286047003.1,N
1574804235.1,286047002.9,N
1574804236.0,286047002.9,N
1574804255.8,286047003.5,N
1574804275.6,286047005.8,Y
1574804295.5,286047001.5,P
1574804315.3,286047002.2,P
1574804335.1,286047001.9,P
1574804355.9,286047000.6,N
1574804375.7,286046998.1,Y
1574804395.6,286046995.3,P
1574804415.4,286046996.3,N
1574804435.2,286046995.5,N
1574804455.1,286046996.3,N
1574804456.0,286046996.3,N
1574804475.8,286046997.5,N
1574804495.6,286046997.2,N
1574804515.5,286046997.5,N
1574804535.3,286046995.4,N
1574804555.2,286046997.8,N
1574804575.9,286046997.7,N
1574804595.7,286046998.0,N
1574804615.6,286046995.1,Y
1574804635.4,286046996.7,P
1574804655.2,286046996.6,P
1574804675.1,286046999.4,N
1574804676.0,286046999.4,N
1574804695.8,286046995.3,Y
1574804715.7,286046998.1,P
1574804735.5,286046998.4,P
1574804755.3,286046998.7,P
1574804775.2,286046998.3,Y
1574804795.0,286047001.0,P
1574804795.9,286047001.0,N
1574804815.8,286047002.2,N
1574804835.6,286047000.1,N
1574804855.4,286047000.0,N
1574804875.3,286047000.1,N
1574804895.1,286047000.5,N
1574804915.8,286047002.7,N
1574804935.7,286047002.3,N
1574804955.5,286047004.0,Y
1574804975.4,286046999.7,P
1574804995.2,286047001.2,N
1574805015.0,286047002.6,P
1574805015.9,286047002.6,N
1574805035.8,286047002.0,N
1574805055.6,286047002.3,N
1574805075.4,286047002.1,N
1574805095.3,286047000.6,N
1574805115.1,286047000.0,N
1574805135.9,286046998.2,N
1574805155.7,286047001.2,N
1574805175.5,286047000.3,N
1574805195.4,286046998.2,N
1574805215.2,286046999.9,N
1574805235.0,286046998.1,N
1574805235.9,286046998.1,N
1574805255.8,286046998.5,N
1574805275.6,286046998.3,N
1574805295.5,286046998.4,N
1574805315.3,286046997.2,N
1574805335.1,286046999.1,N
1574805355.9,286046999.6,N
1574805375.7,286046997.0,N
1574805395.5,286046997.3,N
1574805415.4,286046997.3,N
1574805435.2,286046996.6,N
1574805455.1,286046997.0,N
1574805456.0,286046997.0,N
1574805475.8,286046997.4,N
1574805495.6,286046997.3,N
1574805515.5,286046997.1,N
1574805535.3,286046997.0,N
1574805555.1,286046999.2,N
1574805575.9,286046996.7,N
1574805595.7,286046996.9,N
